SWA245 KATL-KLAS

Flight info

Callsign SWA245
Flight time N/A
Altitude 32000
Route CUTTN2 HANKO SMITZ ARG ICT HBU IBSKI DEANN TYEGR CHOWW4
Aircraft B738/M-SADE2E3GIJ4RWZ/LB1D1

Departure

Time N/A
Airport Hartsfield Jackson Atlanta International Airport (KATL)

Arrival

Time 2026-05-01 11:28
Airport Harry Reid International Airport (KLAS)
Time Latitude Longitude Altitude Speed Heading
2026-05-01 07:23 34.49712 -87.65077 32023 ft 373 kts 295°
2026-05-01 07:24 34.53816 -87.73098 32018 ft 372 kts 295°
2026-05-01 07:24 34.56524 -87.78405 32034 ft 372 kts 295°
2026-05-01 07:25 34.59240 -87.83734 32029 ft 371 kts 295°
2026-05-01 07:25 34.61958 -87.89080 32028 ft 371 kts 295°
2026-05-01 07:26 34.64668 -87.94414 32037 ft 371 kts 295°
2026-05-01 07:26 34.67363 -87.99728 32039 ft 371 kts 294°
2026-05-01 07:27 34.70070 -88.05075 32032 ft 372 kts 294°
2026-05-01 07:27 34.72783 -88.10440 32028 ft 372 kts 294°
2026-05-01 07:28 34.75486 -88.15794 32038 ft 372 kts 294°
2026-05-01 07:28 34.78193 -88.21163 32035 ft 372 kts 294°
2026-05-01 07:29 34.80894 -88.26531 32041 ft 372 kts 294°
2026-05-01 07:29 34.83593 -88.31901 32044 ft 372 kts 294°
2026-05-01 07:30 34.86284 -88.37264 32054 ft 371 kts 294°
2026-05-01 07:30 34.88963 -88.42611 32057 ft 371 kts 294°
2026-05-01 07:31 34.91648 -88.47977 32057 ft 371 kts 294°
2026-05-01 07:32 34.98347 -88.61404 32058 ft 371 kts 294°
2026-05-01 07:33 35.02359 -88.69472 32057 ft 371 kts 294°
2026-05-01 07:33 35.06368 -88.77549 32054 ft 371 kts 294°
2026-05-01 07:34 35.10352 -88.85596 32057 ft 370 kts 294°
2026-05-01 07:35 35.13016 -88.90988 32054 ft 370 kts 294°
2026-05-01 07:35 35.15675 -88.96378 32051 ft 370 kts 294°
2026-05-01 07:36 35.18327 -89.01763 32056 ft 370 kts 294°
2026-05-01 07:36 35.20986 -89.07168 32057 ft 370 kts 294°
2026-05-01 07:37 35.24941 -89.15224 32045 ft 369 kts 294°
2026-05-01 07:37 35.27586 -89.20623 32050 ft 369 kts 294°
2026-05-01 07:38 35.30228 -89.26024 32050 ft 369 kts 294°
2026-05-01 07:39 35.34176 -89.34112 32048 ft 369 kts 294°
2026-05-01 07:39 35.38118 -89.42204 32051 ft 368 kts 294°
2026-05-01 07:40 35.40725 -89.47566 32054 ft 368 kts 293°
2026-05-01 07:40 35.43344 -89.52964 32051 ft 368 kts 293°
2026-05-01 07:41 35.45955 -89.58351 32049 ft 367 kts 293°
2026-05-01 07:42 35.49865 -89.66435 32049 ft 367 kts 293°
2026-05-01 07:42 35.52470 -89.71831 32049 ft 367 kts 293°
2026-05-01 07:43 35.55050 -89.77184 32051 ft 366 kts 293°
2026-05-01 07:43 35.58942 -89.85276 32047 ft 366 kts 293°
2026-05-01 07:44 35.64121 -89.96073 32048 ft 366 kts 293°
2026-05-01 07:45 35.66690 -90.01441 32058 ft 366 kts 293°
2026-05-01 07:45 35.69286 -90.06876 32056 ft 366 kts 293°
2026-05-01 07:46 35.71849 -90.12248 32059 ft 366 kts 293°
2026-05-01 07:47 35.75714 -90.20367 32059 ft 366 kts 293°
2026-05-01 07:47 35.78289 -90.25787 32066 ft 366 kts 293°
2026-05-01 07:48 35.82129 -90.33883 32072 ft 366 kts 292°
2026-05-01 07:48 35.84695 -90.39306 32077 ft 366 kts 292°
2026-05-01 07:49 35.88540 -90.47446 32076 ft 366 kts 292°
2026-05-01 07:50 35.91099 -90.52875 32079 ft 366 kts 292°
2026-05-01 07:50 35.94934 -90.61028 32081 ft 365 kts 292°
2026-05-01 07:51 35.97467 -90.66423 32082 ft 365 kts 292°
2026-05-01 07:52 36.01291 -90.74585 32094 ft 365 kts 292°
2026-05-01 07:52 36.03822 -90.79997 32090 ft 365 kts 292°
2026-05-01 07:53 36.07624 -90.88144 32094 ft 364 kts 292°
2026-05-01 07:53 36.10149 -90.93570 32095 ft 363 kts 291°
2026-05-01 07:55 36.14239 -91.06922 32096 ft 355 kts 283°
2026-05-01 07:56 36.18517 -91.22368 32099 ft 357 kts 283°
2026-05-01 07:57 36.20661 -91.30114 32086 ft 357 kts 283°
2026-05-01 07:58 36.23875 -91.41763 32093 ft 358 kts 283°
2026-05-01 07:59 36.27081 -91.53431 32093 ft 357 kts 283°
2026-05-01 08:00 36.31846 -91.70871 32094 ft 356 kts 282°
2026-05-01 08:01 36.35012 -91.82527 32093 ft 356 kts 282°
2026-05-01 08:02 36.37365 -91.91218 32094 ft 355 kts 282°
2026-05-01 08:03 36.39718 -91.99942 32094 ft 355 kts 282°
2026-05-01 08:03 36.42064 -92.08665 32103 ft 355 kts 282°
2026-05-01 08:04 36.45180 -92.20300 32103 ft 354 kts 282°
2026-05-01 08:05 36.47500 -92.28994 32099 ft 354 kts 282°
2026-05-01 08:06 36.49820 -92.37718 32100 ft 354 kts 282°
2026-05-01 08:07 36.52900 -92.49345 32100 ft 354 kts 282°
2026-05-01 08:08 36.55193 -92.58036 32105 ft 354 kts 282°
2026-05-01 08:09 36.58259 -92.69701 32117 ft 354 kts 282°
2026-05-01 08:09 36.59786 -92.75530 32117 ft 354 kts 282°
2026-05-01 08:10 36.62823 -92.87169 32123 ft 354 kts 282°
2026-05-01 08:11 36.65846 -92.98800 32126 ft 354 kts 282°
2026-05-01 08:12 36.68120 -93.07584 32123 ft 354 kts 282°
2026-05-01 08:13 36.70378 -93.16336 32129 ft 354 kts 282°
2026-05-01 08:13 36.72621 -93.25059 32112 ft 354 kts 282°
2026-05-01 08:14 36.74122 -93.30913 32116 ft 354 kts 281°
2026-05-01 08:14 36.75620 -93.36771 32113 ft 354 kts 281°
2026-05-01 08:15 36.77860 -93.45553 32109 ft 354 kts 281°
2026-05-01 08:16 36.79340 -93.51375 32111 ft 354 kts 281°
2026-05-01 08:16 36.80825 -93.57227 32114 ft 354 kts 281°
2026-05-01 08:17 36.82306 -93.63079 32122 ft 353 kts 281°
2026-05-01 08:17 36.83784 -93.68929 32129 ft 353 kts 281°
2026-05-01 08:18 36.85259 -93.74787 32146 ft 353 kts 281°
2026-05-01 08:19 36.88202 -93.86509 32139 ft 354 kts 281°
2026-05-01 08:19 36.89662 -93.92344 32138 ft 354 kts 281°
2026-05-01 08:20 36.91128 -93.98218 32141 ft 354 kts 281°
2026-05-01 08:20 36.92592 -94.04097 32137 ft 354 kts 281°
2026-05-01 08:21 36.94052 -94.09976 32141 ft 354 kts 281°
2026-05-01 08:21 36.95500 -94.15816 32138 ft 354 kts 281°
2026-05-01 08:22 36.96953 -94.21694 32140 ft 354 kts 281°
2026-05-01 08:22 36.98403 -94.27574 32145 ft 354 kts 281°
2026-05-01 08:23 36.99851 -94.33459 32156 ft 354 kts 281°
2026-05-01 08:23 37.01295 -94.39341 32152 ft 354 kts 281°
2026-05-01 08:24 37.02738 -94.45231 32159 ft 354 kts 281°
2026-05-01 08:24 37.04179 -94.51129 32159 ft 354 kts 281°
2026-05-01 08:25 37.05617 -94.57030 32157 ft 354 kts 281°
2026-05-01 08:25 37.07044 -94.62901 32159 ft 355 kts 281°
2026-05-01 08:26 37.08479 -94.68814 32156 ft 355 kts 281°
2026-05-01 08:26 37.09911 -94.74733 32156 ft 355 kts 281°
2026-05-01 08:27 37.11342 -94.80660 32143 ft 355 kts 281°
2026-05-01 08:27 37.12769 -94.86588 32149 ft 355 kts 280°
2026-05-01 08:28 37.14187 -94.92492 32147 ft 355 kts 280°
2026-05-01 08:28 37.15611 -94.98434 32148 ft 356 kts 280°
2026-05-01 08:29 37.17032 -95.04382 32152 ft 356 kts 280°
2026-05-01 08:29 37.18451 -95.10334 32153 ft 356 kts 280°
2026-05-01 08:30 37.19867 -95.16287 32160 ft 356 kts 280°
2026-05-01 08:30 37.21275 -95.22221 32154 ft 357 kts 280°
2026-05-01 08:31 37.22693 -95.28212 32154 ft 357 kts 280°
2026-05-01 08:31 37.24105 -95.34193 32160 ft 358 kts 280°
2026-05-01 08:32 37.25517 -95.40189 32158 ft 358 kts 280°
2026-05-01 08:32 37.26927 -95.46191 32160 ft 359 kts 280°
2026-05-01 08:33 37.28336 -95.52208 32163 ft 359 kts 280°
2026-05-01 08:33 37.29744 -95.58231 32158 ft 359 kts 280°
2026-05-01 08:34 37.31142 -95.64227 32159 ft 360 kts 280°
2026-05-01 08:34 37.32550 -95.70281 32155 ft 360 kts 280°
2026-05-01 08:35 37.33944 -95.76294 32161 ft 360 kts 280°
2026-05-01 08:35 37.35349 -95.82365 32164 ft 361 kts 280°
2026-05-01 08:36 37.36747 -95.88426 32157 ft 361 kts 280°
2026-05-01 08:36 37.38135 -95.94454 32163 ft 361 kts 280°
2026-05-01 08:37 37.39530 -96.00534 32163 ft 362 kts 280°
2026-05-01 08:37 37.40924 -96.06624 32166 ft 362 kts 279°
2026-05-01 08:38 37.42318 -96.12729 32172 ft 363 kts 279°
2026-05-01 08:38 37.43711 -96.18847 32165 ft 363 kts 279°
2026-05-01 08:39 37.45092 -96.24926 32173 ft 364 kts 279°
2026-05-01 08:39 37.46480 -96.31053 32176 ft 364 kts 279°
2026-05-01 08:40 37.48559 -96.40260 32174 ft 365 kts 279°
2026-05-01 08:40 37.49945 -96.46420 32173 ft 365 kts 279°
2026-05-01 08:41 37.51328 -96.52582 32176 ft 366 kts 279°
2026-05-01 08:41 37.52710 -96.58756 32176 ft 366 kts 279°
2026-05-01 08:42 37.54084 -96.64911 32174 ft 367 kts 280°
2026-05-01 08:42 37.55465 -96.71113 32176 ft 368 kts 280°
2026-05-01 08:43 37.56847 -96.77339 32177 ft 369 kts 280°
2026-05-01 08:43 37.57996 -96.82526 32176 ft 370 kts 280°
2026-05-01 08:44 37.59378 -96.88781 32177 ft 370 kts 280°
2026-05-01 08:44 37.60757 -96.95043 32166 ft 371 kts 280°
2026-05-01 08:45 37.62137 -97.01324 32180 ft 372 kts 280°
2026-05-01 08:45 37.63507 -97.07579 32175 ft 372 kts 280°
2026-05-01 08:46 37.64885 -97.13885 32172 ft 373 kts 280°
2026-05-01 08:46 37.66262 -97.20204 32167 ft 373 kts 280°
2026-05-01 08:47 37.67637 -97.26534 32184 ft 374 kts 280°
2026-05-01 08:47 37.69011 -97.32877 32152 ft 375 kts 280°
2026-05-01 08:48 37.70376 -97.39198 32176 ft 375 kts 280°
2026-05-01 08:48 37.71748 -97.45566 32169 ft 376 kts 280°
2026-05-01 08:49 37.73120 -97.51953 32178 ft 377 kts 280°
2026-05-01 08:49 37.74470 -97.58354 32172 ft 376 kts 278°
2026-05-01 08:50 37.75288 -97.64851 32169 ft 374 kts 274°
2026-05-01 08:50 37.76018 -97.71377 32171 ft 375 kts 274°
2026-05-01 08:51 37.76752 -97.77923 32169 ft 376 kts 275°
2026-05-01 08:51 37.77488 -97.84436 32162 ft 377 kts 275°
2026-05-01 08:52 37.78231 -97.91010 32171 ft 378 kts 275°
2026-05-01 08:52 37.78972 -97.97587 32163 ft 378 kts 275°
2026-05-01 08:53 37.79712 -98.04184 32175 ft 379 kts 275°
2026-05-01 08:53 37.80449 -98.10790 32169 ft 380 kts 275°
2026-05-01 08:54 37.81182 -98.17399 32170 ft 380 kts 275°
2026-05-01 08:54 37.81914 -98.24029 32174 ft 381 kts 275°
2026-05-01 08:55 37.82643 -98.30669 32168 ft 381 kts 275°
2026-05-01 08:55 37.83365 -98.37275 32181 ft 381 kts 275°
2026-05-01 08:56 37.84089 -98.43950 32234 ft 388 kts 275°
2026-05-01 08:56 37.84826 -98.50791 32441 ft 396 kts 275°
2026-05-01 08:57 37.85198 -98.54249 32652 ft 396 kts 275°
2026-05-01 08:57 37.85569 -98.57699 32953 ft 394 kts 275°
2026-05-01 08:57 37.85938 -98.61130 33258 ft 393 kts 274°
2026-05-01 08:57 37.86304 -98.64556 33521 ft 393 kts 274°
2026-05-01 08:58 37.86669 -98.67987 33757 ft 393 kts 274°
2026-05-01 08:58 37.87032 -98.71405 34023 ft 392 kts 274°
2026-05-01 08:58 37.87393 -98.74818 34274 ft 391 kts 274°
2026-05-01 08:58 37.87749 -98.78191 34500 ft 390 kts 274°
2026-05-01 08:59 37.88107 -98.81587 34745 ft 388 kts 274°
2026-05-01 08:59 37.88461 -98.84964 35001 ft 387 kts 274°
2026-05-01 08:59 37.88814 -98.88334 35256 ft 385 kts 274°
2026-05-01 08:59 37.89164 -98.91686 35584 ft 382 kts 274°
2026-05-01 09:00 37.89510 -98.95003 35935 ft 378 kts 274°
2026-05-01 09:00 37.89851 -98.98288 36185 ft 377 kts 274°
2026-05-01 09:00 37.90535 -99.04931 36189 ft 380 kts 274°
2026-05-01 09:01 37.91214 -99.11546 36196 ft 378 kts 274°
2026-05-01 09:01 37.91886 -99.18132 36203 ft 377 kts 274°
2026-05-01 09:02 37.92553 -99.24707 36205 ft 379 kts 274°
2026-05-01 09:02 37.93225 -99.31361 36207 ft 381 kts 274°
2026-05-01 09:03 37.93895 -99.38034 36203 ft 382 kts 274°
2026-05-01 09:03 37.94563 -99.44722 36203 ft 383 kts 274°
2026-05-01 09:04 37.95227 -99.51411 36203 ft 383 kts 274°
2026-05-01 09:04 37.95888 -99.58109 36202 ft 384 kts 273°
2026-05-01 09:05 37.96547 -99.64829 36205 ft 384 kts 273°
2026-05-01 09:05 37.97197 -99.71496 36202 ft 384 kts 273°
2026-05-01 09:06 37.97849 -99.78225 36201 ft 384 kts 273°
2026-05-01 09:06 37.98497 -99.84945 36205 ft 384 kts 273°
2026-05-01 09:07 37.99141 -99.91673 36196 ft 384 kts 273°
2026-05-01 09:07 37.99781 -99.98409 36199 ft 385 kts 273°
2026-05-01 09:08 38.00419 -100.05156 36194 ft 385 kts 273°
2026-05-01 09:08 38.01054 -100.11913 36199 ft 386 kts 273°
2026-05-01 09:09 38.01685 -100.18674 36198 ft 386 kts 273°
2026-05-01 09:09 38.02313 -100.25434 36199 ft 386 kts 273°
2026-05-01 09:10 38.02934 -100.32175 36194 ft 387 kts 273°
2026-05-01 09:10 38.03555 -100.38951 36192 ft 387 kts 274°
2026-05-01 09:11 38.04173 -100.45739 36193 ft 387 kts 273°
2026-05-01 09:11 38.04787 -100.52530 36197 ft 387 kts 274°
2026-05-01 09:12 38.05397 -100.59322 36192 ft 387 kts 274°
2026-05-01 09:12 38.05999 -100.66065 36198 ft 387 kts 274°
2026-05-01 09:13 38.06601 -100.72856 36198 ft 387 kts 274°
2026-05-01 09:13 38.07199 -100.79638 36192 ft 386 kts 274°
2026-05-01 09:14 38.07792 -100.86421 36192 ft 386 kts 274°
2026-05-01 09:14 38.08381 -100.93204 36193 ft 386 kts 274°
2026-05-01 09:15 38.08962 -100.99935 36201 ft 385 kts 274°
2026-05-01 09:15 38.09542 -101.06699 36193 ft 385 kts 274°
2026-05-01 09:16 38.10118 -101.13460 36194 ft 385 kts 274°
2026-05-01 09:17 38.10973 -101.23594 36194 ft 384 kts 274°
2026-05-01 09:17 38.11815 -101.33679 36190 ft 384 kts 274°
2026-05-01 09:18 38.12652 -101.43807 36194 ft 384 kts 274°
2026-05-01 09:19 38.13481 -101.53938 36194 ft 384 kts 274°
2026-05-01 09:20 38.14300 -101.64069 36200 ft 384 kts 274°
2026-05-01 09:21 38.15377 -101.77552 36190 ft 384 kts 274°
2026-05-01 09:21 38.16177 -101.87689 36199 ft 385 kts 274°
2026-05-01 09:22 38.17230 -102.01227 36189 ft 385 kts 274°
2026-05-01 09:23 38.18008 -102.11351 36193 ft 386 kts 274°
2026-05-01 09:24 38.18782 -102.21547 36193 ft 386 kts 274°
2026-05-01 09:25 38.19802 -102.35161 36188 ft 386 kts 273°
2026-05-01 09:26 38.20553 -102.45330 36194 ft 387 kts 273°
2026-05-01 09:26 38.21299 -102.55555 36199 ft 387 kts 273°
2026-05-01 09:27 38.22037 -102.65779 36202 ft 387 kts 273°
2026-05-01 09:28 38.22524 -102.72600 36200 ft 387 kts 273°
2026-05-01 09:28 38.23004 -102.79393 36193 ft 387 kts 273°
2026-05-01 09:29 38.23722 -102.89640 36195 ft 387 kts 273°
2026-05-01 09:30 38.24352 -102.98737 36197 ft 388 kts 273°
2026-05-01 09:30 38.25053 -103.08988 36189 ft 388 kts 273°
2026-05-01 09:31 38.25516 -103.15830 36190 ft 388 kts 273°
2026-05-01 09:32 38.26203 -103.26096 36190 ft 388 kts 273°
2026-05-01 09:32 38.26878 -103.36319 36196 ft 388 kts 273°
2026-05-01 09:33 38.27326 -103.43171 36199 ft 388 kts 273°
2026-05-01 09:34 38.27989 -103.53454 36205 ft 388 kts 273°
2026-05-01 09:34 38.28642 -103.63708 36198 ft 389 kts 273°
2026-05-01 09:35 38.29290 -103.74015 36196 ft 389 kts 273°
2026-05-01 09:36 38.29716 -103.80884 36197 ft 389 kts 273°
2026-05-01 09:36 38.30138 -103.87758 36192 ft 390 kts 272°
2026-05-01 09:37 38.30558 -103.94642 36194 ft 390 kts 272°
2026-05-01 09:37 38.31176 -104.04922 36199 ft 390 kts 272°
2026-05-01 09:38 38.31788 -104.15259 36205 ft 391 kts 272°
2026-05-01 09:39 38.32393 -104.25626 36215 ft 391 kts 272°
2026-05-01 09:39 38.32790 -104.32509 36215 ft 392 kts 272°
2026-05-01 09:40 38.33381 -104.42902 36217 ft 392 kts 272°
2026-05-01 09:41 38.33771 -104.49844 36221 ft 393 kts 272°
2026-05-01 09:41 38.34348 -104.60269 36224 ft 393 kts 272°
2026-05-01 09:42 38.34729 -104.67226 36219 ft 394 kts 272°
2026-05-01 09:43 38.35475 -104.81118 36227 ft 394 kts 272°
2026-05-01 09:43 38.35844 -104.88094 36231 ft 395 kts 272°
2026-05-01 09:44 38.36391 -104.98593 36240 ft 396 kts 272°
2026-05-01 09:45 38.36751 -105.05598 36243 ft 396 kts 272°
2026-05-01 09:45 38.37281 -105.16061 36236 ft 396 kts 272°
2026-05-01 09:46 38.37630 -105.23073 36224 ft 397 kts 272°
2026-05-01 09:46 38.37977 -105.30091 36216 ft 396 kts 272°
2026-05-01 09:47 38.38320 -105.37108 36188 ft 397 kts 272°
2026-05-01 09:47 38.38655 -105.44095 36197 ft 397 kts 272°
2026-05-01 09:48 38.38988 -105.51130 36184 ft 398 kts 272°
2026-05-01 09:48 38.39318 -105.58189 36170 ft 399 kts 272°
2026-05-01 09:49 38.39645 -105.65257 36152 ft 400 kts 272°
2026-05-01 09:49 38.39966 -105.72294 36156 ft 400 kts 272°
2026-05-01 09:50 38.40286 -105.79394 36164 ft 401 kts 272°
2026-05-01 09:50 38.40602 -105.86502 36179 ft 401 kts 272°
2026-05-01 09:51 38.40914 -105.93605 36188 ft 401 kts 272°
2026-05-01 09:51 38.41220 -106.00696 36201 ft 401 kts 272°
2026-05-01 09:52 38.41522 -106.07779 36198 ft 402 kts 272°
2026-05-01 09:52 38.41822 -106.14907 36189 ft 402 kts 272°
2026-05-01 09:53 38.42116 -106.22015 36168 ft 399 kts 272°
2026-05-01 09:53 38.42417 -106.29054 36152 ft 400 kts 272°
2026-05-01 09:54 38.42693 -106.36137 36130 ft 401 kts 272°
2026-05-01 09:54 38.42971 -106.43259 36094 ft 402 kts 272°
2026-05-01 09:55 38.43248 -106.50382 36085 ft 402 kts 272°
2026-05-01 09:55 38.43521 -106.57521 36105 ft 403 kts 272°
2026-05-01 09:56 38.43791 -106.64648 36139 ft 403 kts 272°
2026-05-01 09:56 38.44056 -106.71789 36151 ft 403 kts 272°
2026-05-01 09:57 38.44316 -106.78885 36159 ft 403 kts 272°
2026-05-01 09:57 38.44572 -106.86009 36172 ft 402 kts 272°
2026-05-01 09:58 38.44825 -106.93148 36175 ft 403 kts 272°
2026-05-01 09:58 38.45073 -107.00285 36176 ft 403 kts 271°
2026-05-01 09:59 38.44785 -107.07401 36157 ft 403 kts 260°
2026-05-01 09:59 38.43762 -107.14444 36142 ft 403 kts 260°
2026-05-01 10:00 38.42748 -107.21421 36133 ft 403 kts 260°
2026-05-01 10:00 38.41736 -107.28454 36112 ft 403 kts 260°
2026-05-01 10:01 38.40733 -107.35455 36096 ft 403 kts 260°
2026-05-01 10:01 38.39723 -107.42460 36080 ft 401 kts 261°
2026-05-01 10:02 38.38709 -107.49504 36092 ft 406 kts 260°
2026-05-01 10:02 38.37682 -107.56612 36093 ft 409 kts 260°
2026-05-01 10:03 38.36645 -107.63745 36112 ft 409 kts 260°
2026-05-01 10:03 38.35602 -107.70881 36116 ft 410 kts 260°
2026-05-01 10:04 38.34563 -107.77960 36122 ft 408 kts 260°
2026-05-01 10:04 38.33516 -107.85058 36117 ft 406 kts 260°
2026-05-01 10:05 38.32471 -107.92115 36119 ft 404 kts 260°
2026-05-01 10:05 38.31428 -107.99131 36111 ft 402 kts 260°
2026-05-01 10:06 38.30384 -108.06119 36089 ft 400 kts 260°
2026-05-01 10:06 38.29341 -108.13074 36082 ft 399 kts 260°
2026-05-01 10:07 38.28303 -108.19964 36062 ft 399 kts 260°
2026-05-01 10:07 38.27255 -108.26891 36030 ft 399 kts 260°
2026-05-01 10:08 38.25670 -108.37319 36021 ft 400 kts 260°
2026-05-01 10:09 38.24607 -108.44271 36030 ft 400 kts 260°
2026-05-01 10:09 38.23539 -108.51234 36022 ft 401 kts 260°
2026-05-01 10:10 38.22466 -108.58195 36020 ft 401 kts 260°
2026-05-01 10:10 38.20852 -108.68617 36019 ft 402 kts 259°
2026-05-01 10:11 38.19767 -108.75586 36017 ft 402 kts 259°
2026-05-01 10:11 38.18675 -108.82567 36010 ft 403 kts 259°
2026-05-01 10:12 38.17765 -108.88371 36014 ft 403 kts 259°
2026-05-01 10:13 38.15934 -108.99979 36010 ft 402 kts 259°
2026-05-01 10:13 38.14830 -109.06940 36014 ft 402 kts 259°
2026-05-01 10:14 38.13166 -109.17379 36018 ft 402 kts 259°
2026-05-01 10:14 38.12053 -109.24335 36012 ft 401 kts 259°
2026-05-01 10:15 38.10935 -109.31287 36012 ft 402 kts 259°
2026-05-01 10:15 38.09814 -109.38229 36021 ft 401 kts 259°
2026-05-01 10:16 38.08695 -109.45131 36024 ft 401 kts 259°
2026-05-01 10:17 38.07001 -109.55537 36022 ft 401 kts 259°
2026-05-01 10:17 38.05297 -109.65939 36010 ft 401 kts 259°
2026-05-01 10:18 38.03778 -109.75164 36015 ft 401 kts 259°
2026-05-01 10:19 38.02634 -109.82080 36006 ft 401 kts 259°
2026-05-01 10:19 38.01486 -109.88994 36004 ft 401 kts 259°
2026-05-01 10:20 37.99573 -109.99314 36006 ft 402 kts 252°
2026-05-01 10:20 37.97082 -110.05693 36014 ft 406 kts 243°
2026-05-01 10:21 37.92867 -110.14968 35990 ft 406 kts 244°
2026-05-01 10:22 37.88631 -110.24344 36098 ft 414 kts 244°
2026-05-01 10:22 37.85773 -110.30678 36502 ft 413 kts 244°
2026-05-01 10:23 37.84347 -110.33835 36721 ft 414 kts 244°
2026-05-01 10:23 37.81491 -110.40145 37187 ft 412 kts 244°
2026-05-01 10:23 37.80070 -110.43279 37542 ft 409 kts 244°
2026-05-01 10:24 37.77247 -110.49502 37946 ft 410 kts 244°
2026-05-01 10:24 37.74401 -110.55766 37968 ft 411 kts 244°
2026-05-01 10:25 37.68739 -110.68184 37964 ft 405 kts 244°
2026-05-01 10:26 37.65929 -110.74332 37970 ft 404 kts 244°
2026-05-01 10:27 37.60336 -110.86533 37961 ft 402 kts 244°
2026-05-01 10:28 37.56122 -110.95697 37956 ft 403 kts 244°
2026-05-01 10:28 37.51891 -111.04868 37963 ft 404 kts 244°
2026-05-01 10:29 37.47649 -111.14041 37955 ft 406 kts 244°
2026-05-01 10:30 37.41947 -111.26329 37949 ft 407 kts 244°
2026-05-01 10:31 37.36215 -111.38635 37941 ft 408 kts 244°
2026-05-01 10:32 37.31910 -111.47847 37951 ft 406 kts 244°
2026-05-01 10:33 37.26177 -111.60076 37943 ft 405 kts 244°
2026-05-01 10:34 37.21903 -111.69168 37951 ft 404 kts 243°
2026-05-01 10:34 37.19228 -111.75344 37941 ft 398 kts 253°
2026-05-01 10:35 37.17451 -111.81901 38080 ft 400 kts 255°
2026-05-01 10:35 37.16582 -111.85249 38024 ft 405 kts 255°
2026-05-01 10:35 37.14809 -111.92001 37978 ft 415 kts 255°
2026-05-01 10:36 37.12010 -112.02413 37981 ft 422 kts 255°
2026-05-01 10:37 37.10111 -112.09403 37981 ft 425 kts 255°
2026-05-01 10:37 37.07245 -112.19917 37972 ft 425 kts 255°
2026-05-01 10:38 37.05334 -112.26912 37965 ft 424 kts 255°
2026-05-01 10:38 37.03424 -112.33884 37930 ft 421 kts 255°
2026-05-01 10:39 37.01535 -112.40761 37908 ft 418 kts 255°
2026-05-01 10:39 37.00601 -112.44166 37609 ft 423 kts 255°
2026-05-01 10:39 36.99642 -112.47644 37342 ft 421 kts 255°
2026-05-01 10:40 36.98684 -112.51114 37068 ft 419 kts 255°
2026-05-01 10:40 36.97734 -112.54545 36821 ft 419 kts 255°
2026-05-01 10:40 36.96787 -112.57964 36568 ft 418 kts 255°
2026-05-01 10:40 36.95831 -112.61415 36325 ft 418 kts 254°
2026-05-01 10:41 36.94876 -112.64858 36091 ft 418 kts 255°
2026-05-01 10:41 36.93919 -112.68303 35855 ft 418 kts 254°
2026-05-01 10:41 36.92015 -112.75147 35400 ft 419 kts 254°
2026-05-01 10:42 36.91047 -112.78623 35170 ft 420 kts 254°
2026-05-01 10:42 36.90100 -112.82018 34953 ft 420 kts 254°
2026-05-01 10:42 36.89136 -112.85468 34732 ft 421 kts 254°
2026-05-01 10:42 36.88154 -112.88975 34504 ft 422 kts 254°
2026-05-01 10:43 36.87196 -112.92390 34288 ft 423 kts 254°
2026-05-01 10:43 36.86210 -112.95899 34049 ft 424 kts 254°
2026-05-01 10:43 36.85244 -112.99336 33781 ft 424 kts 254°
2026-05-01 10:43 36.84265 -113.02811 33512 ft 425 kts 254°
2026-05-01 10:44 36.83283 -113.06298 33229 ft 426 kts 254°
2026-05-01 10:44 36.82295 -113.09800 32777 ft 426 kts 254°
2026-05-01 10:44 36.81312 -113.13277 32234 ft 420 kts 254°
2026-05-01 10:44 36.80341 -113.16705 31631 ft 418 kts 253°
2026-05-01 10:45 36.79377 -113.20111 31099 ft 414 kts 253°
2026-05-01 10:45 36.78418 -113.23491 30566 ft 411 kts 253°
2026-05-01 10:45 36.77467 -113.26841 30037 ft 408 kts 253°
2026-05-01 10:45 36.76524 -113.30161 29428 ft 405 kts 253°
2026-05-01 10:46 36.75601 -113.33406 28854 ft 401 kts 253°
2026-05-01 10:46 36.74674 -113.36661 28336 ft 397 kts 253°
2026-05-01 10:46 36.73752 -113.39896 27827 ft 393 kts 253°
2026-05-01 10:46 36.72840 -113.43089 27312 ft 389 kts 253°
2026-05-01 10:47 36.71937 -113.46251 26797 ft 386 kts 253°
2026-05-01 10:47 36.71045 -113.49378 26296 ft 382 kts 254°
2026-05-01 10:47 36.70157 -113.52493 25795 ft 379 kts 254°
2026-05-01 10:47 36.69275 -113.55586 25304 ft 377 kts 254°
2026-05-01 10:48 36.68401 -113.58650 24813 ft 374 kts 254°
2026-05-01 10:48 36.67530 -113.61698 24337 ft 372 kts 254°
2026-05-01 10:48 36.66665 -113.64725 23850 ft 370 kts 254°
2026-05-01 10:48 36.65802 -113.67738 23349 ft 368 kts 254°
2026-05-01 10:49 36.64953 -113.70702 22799 ft 366 kts 254°
2026-05-01 10:49 36.64099 -113.73677 22285 ft 364 kts 254°
2026-05-01 10:49 36.63252 -113.76629 21803 ft 361 kts 254°
2026-05-01 10:49 36.62404 -113.79579 21323 ft 358 kts 253°
2026-05-01 10:50 36.61566 -113.82492 20850 ft 355 kts 253°
2026-05-01 10:50 36.60734 -113.85380 20390 ft 353 kts 253°
2026-05-01 10:50 36.59907 -113.88246 19926 ft 351 kts 253°
2026-05-01 10:50 36.59068 -113.91108 19465 ft 350 kts 250°
2026-05-01 10:51 36.57835 -113.93742 19019 ft 353 kts 236°
2026-05-01 10:51 36.56336 -113.96163 18567 ft 352 kts 234°
2026-05-01 10:51 36.54833 -113.98515 18129 ft 352 kts 234°
2026-05-01 10:51 36.53310 -114.00899 17609 ft 351 kts 234°
2026-05-01 10:52 36.51801 -114.03283 17126 ft 349 kts 234°
2026-05-01 10:52 36.50313 -114.05653 16660 ft 347 kts 234°
2026-05-01 10:52 36.48834 -114.08021 16210 ft 346 kts 234°
2026-05-01 10:52 36.47364 -114.10381 15914 ft 344 kts 234°
2026-05-01 10:53 36.45893 -114.12745 15901 ft 345 kts 234°
2026-05-01 10:53 36.44440 -114.15078 15884 ft 336 kts 234°
2026-05-01 10:53 36.43034 -114.17336 15866 ft 324 kts 234°
2026-05-01 10:53 36.41682 -114.19503 15861 ft 310 kts 234°
2026-05-01 10:54 36.40386 -114.21578 15854 ft 297 kts 235°
2026-05-01 10:54 36.39142 -114.23566 15861 ft 285 kts 234°
2026-05-01 10:54 36.37945 -114.25451 15859 ft 272 kts 234°
2026-05-01 10:54 36.36801 -114.27243 15721 ft 266 kts 234°
2026-05-01 10:55 36.35653 -114.29042 15453 ft 265 kts 234°
2026-05-01 10:55 36.34500 -114.30852 15073 ft 270 kts 234°
2026-05-01 10:55 36.33314 -114.32715 14404 ft 284 kts 234°
2026-05-01 10:55 36.32031 -114.34728 13520 ft 308 kts 233°
2026-05-01 10:56 36.30684 -114.36837 12931 ft 315 kts 233°
2026-05-01 10:56 36.29320 -114.38969 12597 ft 313 kts 233°
2026-05-01 10:56 36.27977 -114.41070 12306 ft 309 kts 233°
2026-05-01 10:56 36.26640 -114.43158 11950 ft 309 kts 233°
2026-05-01 10:57 36.25303 -114.45243 11580 ft 308 kts 233°
2026-05-01 10:57 36.23961 -114.47311 11184 ft 309 kts 233°
2026-05-01 10:57 36.22609 -114.49384 10894 ft 306 kts 233°
2026-05-01 10:57 36.21321 -114.51353 11093 ft 289 kts 233°
2026-05-01 10:58 36.20071 -114.53264 11232 ft 285 kts 233°
2026-05-01 10:58 36.18818 -114.55183 10987 ft 288 kts 233°
2026-05-01 10:58 36.17553 -114.57122 10636 ft 290 kts 233°
2026-05-01 10:58 36.16279 -114.59071 10253 ft 292 kts 233°
2026-05-01 10:59 36.15001 -114.61025 9971 ft 291 kts 233°
2026-05-01 10:59 36.13729 -114.62969 9726 ft 289 kts 233°
2026-05-01 10:59 36.12486 -114.64865 9681 ft 279 kts 233°
2026-05-01 10:59 36.11290 -114.66690 9582 ft 266 kts 234°
2026-05-01 11:00 36.10121 -114.68473 9117 ft 267 kts 233°
2026-05-01 11:00 36.08966 -114.70234 8667 ft 268 kts 233°
2026-05-01 11:00 36.07833 -114.72055 8222 ft 266 kts 244°
2026-05-01 11:00 36.07305 -114.74193 7784 ft 258 kts 269°
2026-05-01 11:01 36.07272 -114.76399 7361 ft 256 kts 274°
2026-05-01 11:01 36.07295 -114.78599 6936 ft 256 kts 275°
2026-05-01 11:01 36.07319 -114.80797 6508 ft 256 kts 274°
2026-05-01 11:01 36.07336 -114.82998 6062 ft 256 kts 274°
2026-05-01 11:02 36.07347 -114.85211 5597 ft 258 kts 274°
2026-05-01 11:02 36.07354 -114.87428 5132 ft 259 kts 274°
2026-05-01 11:02 36.07357 -114.89660 4679 ft 259 kts 274°
2026-05-01 11:02 36.07361 -114.91854 4291 ft 257 kts 274°
2026-05-01 11:03 36.07363 -114.94055 3895 ft 255 kts 274°
2026-05-01 11:03 36.07363 -114.96195 3776 ft 241 kts 274°
2026-05-01 11:03 36.07362 -114.98194 3779 ft 223 kts 274°
2026-05-01 11:03 36.07360 -115.00042 3778 ft 203 kts 274°
2026-05-01 11:04 36.07358 -115.01152 3778 ft 187 kts 274°
2026-05-01 11:04 36.07365 -115.03227 3810 ft 176 kts 276°
2026-05-01 11:04 36.07374 -115.04215 3809 ft 173 kts 275°
2026-05-01 11:04 36.07374 -115.06158 3612 ft 163 kts 274°
2026-05-01 11:05 36.07372 -115.07080 3421 ft 160 kts 274°
2026-05-01 11:05 36.07371 -115.08437 3182 ft 156 kts 272°
2026-05-01 11:05 36.07371 -115.09787 2880 ft 160 kts 272°
2026-05-01 11:05 36.07379 -115.11146 2484 ft 154 kts 271°
2026-05-01 11:06 36.07371 -115.12455 2262 ft 154 kts 269°
2026-05-01 11:06 36.07364 -115.13791 2327 ft 169 kts 271°
2026-05-01 11:06 36.07390 -115.15296 3029 ft 194 kts 273°
2026-05-01 11:07 36.08088 -115.18468 3542 ft 190 kts 326°
2026-05-01 11:07 36.09374 -115.18883 3777 ft 207 kts
2026-05-01 11:07 36.10837 -115.18344 3729 ft 232 kts 33°
2026-05-01 11:07 36.11825 -115.16751 4308 ft 240 kts 70°
2026-05-01 11:08 36.11848 -115.14649 4886 ft 259 kts 104°
2026-05-01 11:08 36.10829 -115.12779 5417 ft 277 kts 134°
2026-05-01 11:08 36.08774 -115.08777 5977 ft 277 kts 112°
2026-05-01 11:09 36.07929 -115.06635 6010 ft 278 kts 113°
2026-05-01 11:09 36.07066 -115.04483 6016 ft 279 kts 113°
2026-05-01 11:09 36.06193 -115.02335 6015 ft 279 kts 113°
2026-05-01 11:10 36.04433 -114.98055 6001 ft 279 kts 113°
2026-05-01 11:10 36.03550 -114.95918 5979 ft 279 kts 114°
2026-05-01 11:10 36.02664 -114.93780 5978 ft 279 kts 113°
2026-05-01 11:10 36.01779 -114.91648 5982 ft 278 kts 113°
2026-05-01 11:11 36.00907 -114.89551 5988 ft 279 kts 114°
2026-05-01 11:11 36.00016 -114.87415 5994 ft 280 kts 113°
2026-05-01 11:11 35.99055 -114.85290 5980 ft 283 kts 119°
2026-05-01 11:11 35.97981 -114.83294 5994 ft 283 kts 121°
2026-05-01 11:12 35.96875 -114.81307 5973 ft 276 kts 121°
2026-05-01 11:12 35.95816 -114.79396 5963 ft 263 kts 120°
2026-05-01 11:12 35.94817 -114.77575 5962 ft 250 kts 120°
2026-05-01 11:12 35.93869 -114.75837 5959 ft 239 kts 119°
2026-05-01 11:13 35.92945 -114.74140 5980 ft 238 kts 120°
2026-05-01 11:13 35.92016 -114.72450 5963 ft 238 kts 124°
2026-05-01 11:13 35.90745 -114.71136 5974 ft 243 kts 149°
2026-05-01 11:13 35.89137 -114.70468 5959 ft 247 kts 171°
2026-05-01 11:14 35.87423 -114.70548 5971 ft 248 kts 194°
2026-05-01 11:14 35.85857 -114.71414 5951 ft 247 kts 218°
2026-05-01 11:14 35.84693 -114.72945 5976 ft 246 kts 242°
2026-05-01 11:14 35.84100 -114.74902 5947 ft 243 kts 266°
2026-05-01 11:15 35.84166 -114.76925 5960 ft 234 kts 289°
2026-05-01 11:15 35.84815 -114.78722 5988 ft 227 kts 308°
2026-05-01 11:15 35.85837 -114.80171 5988 ft 221 kts 323°
2026-05-01 11:15 35.87132 -114.81126 5987 ft 216 kts 341°
2026-05-01 11:16 35.88562 -114.81771 5980 ft 216 kts 344°
2026-05-01 11:16 35.89966 -114.82352 5983 ft 215 kts 345°
2026-05-01 11:16 35.91385 -114.82935 5982 ft 216 kts 344°
2026-05-01 11:16 35.92794 -114.83518 5979 ft 216 kts 344°
2026-05-01 11:17 35.94219 -114.84110 5979 ft 217 kts 344°
2026-05-01 11:17 35.95650 -114.84707 5984 ft 217 kts 344°
2026-05-01 11:17 35.97084 -114.85309 5977 ft 218 kts 343°
2026-05-01 11:17 35.98521 -114.85914 5988 ft 218 kts 344°
2026-05-01 11:18 35.99972 -114.86480 5971 ft 218 kts 352°
2026-05-01 11:18 36.01463 -114.86341 5977 ft 215 kts 19°
2026-05-01 11:18 36.02749 -114.85431 5994 ft 216 kts 41°
2026-05-01 11:18 36.03597 -114.83896 5991 ft 220 kts 66°
2026-05-01 11:19 36.03792 -114.82003 5977 ft 228 kts 94°
2026-05-01 11:19 36.03228 -114.80147 5957 ft 239 kts 122°
2026-05-01 11:19 36.01975 -114.78773 5972 ft 246 kts 150°
2026-05-01 11:19 36.00387 -114.77973 5979 ft 249 kts 158°
2026-05-01 11:20 35.98736 -114.77301 5988 ft 249 kts 160°
2026-05-01 11:20 35.97109 -114.76645 5977 ft 243 kts 159°
2026-05-01 11:20 35.95490 -114.76040 5968 ft 248 kts 169°
2026-05-01 11:20 35.93767 -114.76255 5988 ft 257 kts 201°
2026-05-01 11:21 35.92329 -114.77496 5985 ft 260 kts 233°
2026-05-01 11:21 35.91595 -114.79482 5972 ft 253 kts 266°
2026-05-01 11:21 35.91808 -114.81563 5965 ft 242 kts 298°
2026-05-01 11:21 35.92789 -114.83174 5975 ft 232 kts 324°
2026-05-01 11:22 35.94171 -114.84138 5977 ft 228 kts 341°
2026-05-01 11:22 35.95667 -114.84783 5976 ft 228 kts 344°
2026-05-01 11:22 35.97160 -114.85395 5960 ft 223 kts 343°
2026-05-01 11:22 35.98594 -114.86052 5970 ft 218 kts 342°
2026-05-01 11:23 36.00013 -114.86713 5798 ft 220 kts 342°
2026-05-01 11:23 36.01390 -114.87583 5542 ft 225 kts 329°
2026-05-01 11:23 36.02696 -114.88631 5301 ft 223 kts 332°
2026-05-01 11:23 36.03997 -114.89638 5065 ft 218 kts 332°
2026-05-01 11:24 36.05245 -114.90612 4994 ft 207 kts 330°
2026-05-01 11:24 36.06414 -114.91560 4965 ft 197 kts 328°
2026-05-01 11:24 36.07332 -114.94757 4818 ft 218 kts 279°
2026-05-01 11:25 36.07397 -114.96673 4574 ft 221 kts 275°
2026-05-01 11:25 36.07386 -115.00344 4007 ft 205 kts 274°
2026-05-01 11:25 36.07380 -115.02052 3777 ft 192 kts 274°
2026-05-01 11:26 36.07377 -115.03656 3521 ft 180 kts 274°
2026-05-01 11:26 36.07373 -115.06588 3080 ft 161 kts 272°
2026-05-01 11:26 36.07371 -115.07944 2864 ft 156 kts 271°
2026-05-01 11:27 36.07370 -115.09283 2667 ft 157 kts 270°
2026-05-01 11:27 36.07368 -115.10630 2472 ft 157 kts 269°
2026-05-01 11:27 36.07374 -115.11978 2333 ft 153 kts 270°
2026-05-01 11:27 36.07372 -115.13269 2188 ft 143 kts 269°
2026-05-01 11:28 36.07366 -115.14335 2191 ft 105 kts 270°
2026-05-01 11:28 36.07368 -115.15055 2186 ft 62 kts 270°
2026-05-01 11:28 36.07393 -115.15307 2188 ft 25 kts 288°
2026-05-01 11:29 36.07476 -115.15520 2188 ft 0 kts 300°
2026-05-01 11:30 36.07478 -115.15524 2188 ft 2 kts 300°
2026-05-01 11:30 36.07500 -115.15571 2191 ft 10 kts 303°
2026-05-01 11:30 36.07549 -115.15637 2192 ft 10 kts 317°
2026-05-01 11:30 36.07599 -115.15695 2189 ft 11 kts 315°
2026-05-01 11:31 36.07664 -115.15774 2188 ft 16 kts 315°
2026-05-01 11:31 36.07742 -115.15825 2190 ft 6 kts
2026-05-01 11:31 36.07782 -115.15822 2188 ft 6 kts 14°
2026-05-01 11:31 36.07809 -115.15793 2188 ft 5 kts 70°
2026-05-01 11:32 36.07808 -115.15748 2189 ft 6 kts 94°
2026-05-01 11:32 36.07805 -115.15684 2187 ft 9 kts 93°
2026-05-01 11:32 36.07804 -115.15587 2187 ft 13 kts 90°
2026-05-01 11:32 36.07805 -115.15461 2188 ft 15 kts 89°
2026-05-01 11:33 36.07803 -115.15326 2188 ft 16 kts 91°
2026-05-01 11:33 36.07817 -115.15235 2189 ft 9 kts 48°
2026-05-01 11:33 36.07868 -115.15200 2187 ft 8 kts 20°
2026-05-01 11:33 36.07882 -115.15149 2189 ft 6 kts 97°
2026-05-01 11:34 36.07876 -115.15080 2188 ft 11 kts 94°
2026-05-01 11:34 36.07870 -115.14978 2189 ft 13 kts 95°
2026-05-01 11:34 36.07863 -115.14873 2187 ft 12 kts 95°
2026-05-01 11:34 36.07855 -115.14775 2188 ft 11 kts 95°
2026-05-01 11:35 36.07850 -115.14685 2187 ft 10 kts 93°
2026-05-01 11:35 36.07846 -115.14593 2187 ft 11 kts 93°
2026-05-01 11:35 36.07853 -115.14506 2187 ft 9 kts 57°
2026-05-01 11:35 36.07911 -115.14485 2188 ft 9 kts 359°
2026-05-01 11:36 36.07970 -115.14485 2189 ft 7 kts 360°
2026-05-01 11:36 36.07990 -115.14487 2189 ft 2 kts 346°
2026-05-01 11:36 36.08003 -115.14504 2188 ft 4 kts 298°
2026-05-01 11:36 36.08009 -115.14538 2187 ft 4 kts 281°
2026-05-01 11:37 36.08010 -115.14553 2189 ft 0 kts 277°
2026-05-01 11:37 36.08011 -115.14556 2188 ft 0 kts 277°
2026-05-01 11:37 36.08011 -115.14559 2187 ft 1 kts 277°
2026-05-01 11:37 36.08011 -115.14560 2187 ft 0 kts 277°